Home   Weather   Butte   Past weeks

Flag for USA Past Weather in Butte, Montana, USA — Yesterday and Last 2 Weeks

Now
52 °F

Overcast.


Feels Like: 47 °F
Forecast: 29 / 46 °F
Wind: 17 mph from Northwest

Location: Mooney Airport

Current Time: Apr 30, 2017 at 6:27:35 pm

Latest Report: Apr 30, 2017 at 5:53 pm


Visibility: 10 mi

Pressure: 29.91 "Hg (24.43 "Hg at 1685m altitude)

Humidity: 30%

Dew Point: 21 °F

Location of ButteLocation

Past Weather in Butte — Graph

°F

Butte Temperature Yesterday

Maximum temperature yesterday: 54 °F (at 5:53 pm)
Minimum temperature yesterday: 30 °F (at 6:53 am)
Average temperature yesterday: 42 °F

High & Low Weather Summary for the Past Weeks

 TemperatureHumidityPressure
High58 °F (Apr 22, 4:53 pm)96% (Apr 24, 5:06 am)30.34 "Hg (Apr 24, 5:06 am)
Low21 °F (Apr 16, 6:53 am)16% (Apr 19, 5:53 pm)29.56 "Hg (Apr 24, 1:53 pm)
Average40 °F62%29.94 "Hg
* Reported Apr 15 4:53 pm — Apr 30 4:53 pm, Butte, Weather by CustomWeather, © 2017

Note: Actual official high and low records may vary slightly from our data, if they occured in-between our weather recording intervals... More about our weather records

Advertising

Butte Weather History for the Previous 24 Hours

Scroll right to see more
 ConditionsComfort  
Time TempWeatherWind HumidityBarometerVisibility
4:53 pm
Sun, Apr 30
53 °FScattered clouds.16 mph25%29.91 "Hg10 mi
3:53 pm54 °FPartly sunny.15 mph29%29.91 "Hg10 mi
2:53 pm53 °FBroken clouds.18 mph37%29.93 "Hg10 mi
1:53 pm48 °FLight rain. Overcast.12 mph54%29.96 "Hg10 mi
12:53 pm48 °FLight rain. Mostly cloudy.13 mph52%29.99 "Hg10 mi
11:53 am47 °FOvercast.7 mph44%30.01 "Hg10 mi
10:53 am47 °FOvercast.7 mph42%30.00 "Hg10 mi
9:53 am46 °FPartly sunny.12 mph42%29.99 "Hg10 mi
8:53 am45 °FMostly cloudy.5 mph40%29.99 "Hg10 mi
7:53 am43 °FOvercast.No wind45%29.98 "Hg10 mi
6:53 am40 °FPartly sunny.No wind55%29.99 "Hg10 mi
5:53 am40 °FMostly cloudy.5 mph55%30.00 "Hg10 mi
4:53 am38 °FMostly cloudy.No wind65%30.02 "Hg10 mi
3:53 am38 °FMostly cloudy.3 mph60%30.02 "Hg10 mi
2:53 am37 °FMostly cloudy.No wind65%30.04 "Hg10 mi
1:53 am36 °FPassing clouds.No wind64%30.05 "Hg10 mi
12:53 am35 °FClear.5 mph67%30.08 "Hg10 mi
11:53 pm
Sat, Apr 29
37 °FClear.No wind62%30.08 "Hg10 mi
10:53 pm41 °FClear.3 mph49%30.09 "Hg10 mi
9:53 pm44 °FPassing clouds.6 mph41%30.09 "Hg10 mi
8:53 pm48 °FClear.9 mph34%30.08 "Hg10 mi
7:53 pm52 °FSunny.9 mph23%30.06 "Hg10 mi
6:53 pm53 °FSunny.10 mph18%30.06 "Hg10 mi
Weather by CustomWeather, © 2017

See weather overviewHow to use our weather pages